Time,TemperatureF,DewpointF,PressureIn,WindDirection,WindDirectionDegrees,WindSpeedMPH,WindSpeedGustMPH,Humidity,HourlyPrecipIn,Conditions,Clouds,dailyrainin,SoftwareType,DateUTC
2013-09-27 00:00:00,75.8,71.6,29.85,NNW,344,0.0,0.0,87,0.00,,,0.00,WeatherCatV1.21B27,2013-09-27 04:00:00,
2013-09-27 00:01:00,75.8,71.6,29.85,NNW,344,0.0,0.0,87,0.00,,,0.00,WeatherCatV1.21B27,2013-09-27 04:01:00,
2013-09-27 00:02:00,75.8,71.6,29.85,NNW,344,0.0,0.0,87,0.00,,,0.00,WeatherCatV1.21B27,2013-09-27 04:02:00,
2013-09-27 00:03:00,75.8,71.6,29.85,NNW,344,0.0,1.0,87,0.00,,,0.00,WeatherCatV1.21B27,2013-09-27 04:03:00,
2013-09-27 00:08:00,75.7,71.5,29.85,NNW,344,0.0,0.0,87,0.00,,,0.00,WeatherCatV1.21B27,2013-09-27 04:08:00,
2013-09-27 00:13:00,75.6,71.4,29.85,NNW,344,0.0,0.0,87,0.00,,,0.00,WeatherCatV1.21B27,2013-09-27 04:13:00,
2013-09-27 00:18:00,75.6,71.8,29.85,NNW,344,0.0,0.0,88,0.00,,,0.00,WeatherCatV1.21B27,2013-09-27 04:18:00,
2013-09-27 00:23:00,75.5,71.7,29.85,NNW,344,0.0,1.0,88,0.00,,,0.00,WeatherCatV1.21B27,2013-09-27 04:23:00,
2013-09-27 00:28:00,75.4,71.9,29.85,NNW,348,1.0,2.0,89,0.00,,,0.00,WeatherCatV1.21B27,2013-09-27 04:28:00,
2013-09-27 00:33:00,75.5,72.0,29.85,NW,309,5.0,5.0,89,0.00,,,0.00,WeatherCatV1.21B27,2013-09-27 04:33:00,
2013-09-27 00:38:00,75.7,72.6,29.85,NNW,333,1.0,5.0,90,0.00,,,0.00,WeatherCatV1.21B27,2013-09-27 04:38:00,
2013-09-27 00:43:00,75.9,72.4,29.86,North,350,4.0,8.0,89,0.00,,,0.00,WeatherCatV1.21B27,2013-09-27 04:43:00,
2013-09-27 00:48:00,76.0,72.5,29.85,NNW,338,1.0,3.0,89,0.00,,,0.00,WeatherCatV1.21B27,2013-09-27 04:48:00,
2013-09-27 00:53:00,76.0,72.2,29.85,North,10,4.0,6.0,88,0.00,,,0.00,WeatherCatV1.21B27,2013-09-27 04:53:00,
2013-09-27 00:58:00,76.0,72.2,29.86,ENE,76,5.0,9.0,88,0.00,,,0.00,WeatherCatV1.21B27,2013-09-27 04:58:00,
2013-09-27 01:03:00,76.0,72.2,29.86,North,355,0.0,6.0,88,0.00,,,0.00,WeatherCatV1.21B27,2013-09-27 05:03:00,
2013-09-27 01:08:00,75.9,71.7,29.86,North,5,1.0,5.0,87,0.00,,,0.00,WeatherCatV1.21B27,2013-09-27 05:08:00,
2013-09-27 01:13:00,75.9,71.7,29.86,North,10,2.0,10.0,87,0.00,,,0.00,WeatherCatV1.21B27,2013-09-27 05:13:00,
2013-09-27 01:18:00,75.8,71.6,29.86,NNW,338,5.0,6.0,87,0.00,,,0.00,WeatherCatV1.21B27,2013-09-27 05:18:00,
2013-09-27 01:23:00,75.8,71.6,29.86,NNW,346,2.0,6.0,87,0.00,,,0.00,WeatherCatV1.21B27,2013-09-27 05:23:00,
2013-09-27 01:28:00,75.7,71.5,29.86,NW,309,0.0,4.0,87,0.00,,,0.00,WeatherCatV1.21B27,2013-09-27 05:28:00,
2013-09-27 01:33:00,75.6,71.4,29.86,NNW,338,4.0,7.0,87,0.00,,,0.00,WeatherCatV1.21B27,2013-09-27 05:33:00,
2013-09-27 01:38:00,75.5,71.3,29.86,North,5,2.0,6.0,87,0.00,,,0.00,WeatherCatV1.21B27,2013-09-27 05:38:00,
2013-09-27 01:43:00,75.4,71.2,29.86,NNW,331,0.0,5.0,87,0.00,,,0.00,WeatherCatV1.21B27,2013-09-27 05:43:00,
2013-09-27 01:48:00,75.3,71.2,29.86,North,11,2.0,4.0,87,0.00,,,0.00,WeatherCatV1.21B27,2013-09-27 05:48:00,
2013-09-27 01:53:00,75.3,71.5,29.86,North,0,0.0,2.0,88,0.00,,,0.00,WeatherCatV1.21B27,2013-09-27 05:53:00,
2013-09-27 01:58:00,75.1,71.3,29.86,NNE,19,0.0,4.0,88,0.00,,,0.00,WeatherCatV1.21B27,2013-09-27 05:58:00,
2013-09-27 02:03:00,75.1,71.3,29.87,North,5,0.0,4.0,88,0.00,,,0.00,WeatherCatV1.21B27,2013-09-27 06:03:00,
2013-09-27 02:09:00,75.1,71.3,29.87,North,5,1.0,5.0,88,0.00,,,0.00,WeatherCatV1.21B27,2013-09-27 06:09:00,
2013-09-27 02:14:00,75.0,71.2,29.87,North,11,0.0,4.0,88,0.00,,,0.00,WeatherCatV1.21B27,2013-09-27 06:14:00,
2013-09-27 02:19:00,75.1,71.3,29.86,NNE,32,1.0,2.0,88,0.00,,,0.00,WeatherCatV1.21B27,2013-09-27 06:19:00,
2013-09-27 02:24:00,74.9,71.1,29.87,ENE,68,0.0,3.0,88,0.00,,,0.00,WeatherCatV1.21B27,2013-09-27 06:24:00,
2013-09-27 02:29:00,74.9,71.1,29.87,NNW,340,0.0,2.0,88,0.00,,,0.00,WeatherCatV1.21B27,2013-09-27 06:29:00,
2013-09-27 02:34:00,74.8,71.3,29.87,NNW,339,4.0,4.0,89,0.00,,,0.00,WeatherCatV1.21B27,2013-09-27 06:34:00,
2013-09-27 02:39:00,74.8,71.3,29.86,NNE,18,0.0,5.0,89,0.00,,,0.00,WeatherCatV1.21B27,2013-09-27 06:39:00,
2013-09-27 02:44:00,74.8,71.3,29.86,North,5,0.0,4.0,89,0.00,,,0.00,WeatherCatV1.21B27,2013-09-27 06:44:00,
2013-09-27 02:49:00,74.8,71.3,29.86,North,355,1.0,1.0,89,0.00,,,0.00,WeatherCatV1.21B27,2013-09-27 06:49:00,
2013-09-27 02:54:00,74.8,71.3,29.86,NNW,347,0.0,1.0,89,0.00,,,0.00,WeatherCatV1.21B27,2013-09-27 06:54:00,
2013-09-27 02:59:00,74.7,71.2,29.86,NNE,22,0.0,2.0,89,0.00,,,0.00,WeatherCatV1.21B27,2013-09-27 06:59:00,
2013-09-27 03:04:00,74.7,71.2,29.86,NNE,22,0.0,1.0,89,0.00,,,0.00,WeatherCatV1.21B27,2013-09-27 07:04:00,
2013-09-27 03:09:00,74.7,71.2,29.86,NNE,22,0.0,0.0,89,0.00,,,0.00,WeatherCatV1.21B27,2013-09-27 07:09:00,
2013-09-27 03:14:00,74.7,71.2,29.86,North,350,0.0,1.0,89,0.00,,,0.00,WeatherCatV1.21B27,2013-09-27 07:14:00,
2013-09-27 03:19:00,74.7,71.2,29.86,NW,325,0.0,5.0,89,0.00,,,0.00,WeatherCatV1.21B27,2013-09-27 07:19:00,
2013-09-27 03:24:00,74.7,71.2,29.86,NNW,343,4.0,4.0,89,0.00,,,0.00,WeatherCatV1.21B27,2013-09-27 07:24:00,
2013-09-27 03:29:00,74.6,71.1,29.86,NNW,336,0.0,2.0,89,0.00,,,0.00,WeatherCatV1.21B27,2013-09-27 07:29:00,
2013-09-27 03:34:00,74.6,71.1,29.86,NNW,344,0.0,1.0,89,0.00,,,0.00,WeatherCatV1.21B27,2013-09-27 07:34:00,
2013-09-27 03:39:00,74.6,71.1,29.86,NNW,342,1.0,2.0,89,0.00,,,0.00,WeatherCatV1.21B27,2013-09-27 07:39:00,
2013-09-27 03:44:00,74.6,71.1,29.86,NNW,342,1.0,2.0,89,0.00,,,0.00,WeatherCatV1.21B27,2013-09-27 07:44:00,
2013-09-27 03:49:00,74.6,71.1,29.86,NNE,14,0.0,0.0,89,0.00,,,0.00,WeatherCatV1.21B27,2013-09-27 07:49:00,
2013-09-27 03:54:00,74.5,71.0,29.86,North,5,0.0,1.0,89,0.00,,,0.00,WeatherCatV1.21B27,2013-09-27 07:54:00,
2013-09-27 03:59:00,74.3,70.8,29.86,North,5,0.0,1.0,89,0.00,,,0.00,WeatherCatV1.21B27,2013-09-27 07:59:00,
2013-09-27 04:04:00,74.2,71.1,29.86,NNW,344,1.0,2.0,90,0.00,,,0.00,WeatherCatV1.21B27,2013-09-27 08:04:00,
2013-09-27 04:09:00,74.0,70.9,29.86,NNW,344,1.0,2.0,90,0.00,,,0.00,WeatherCatV1.21B27,2013-09-27 08:09:00,
2013-09-27 04:14:00,73.9,70.8,29.86,NNW,343,1.0,2.0,90,0.00,,,0.00,WeatherCatV1.21B27,2013-09-27 08:14:00,
2013-09-27 04:19:00,73.8,70.7,29.86,NNW,343,0.0,1.0,90,0.00,,,0.00,WeatherCatV1.21B27,2013-09-27 08:19:00,
2013-09-27 04:24:00,73.7,70.6,29.86,NNW,343,0.0,2.0,90,0.00,,,0.00,WeatherCatV1.21B27,2013-09-27 08:24:00,
2013-09-27 04:29:00,73.5,70.7,29.86,NNW,331,2.0,4.0,91,0.00,,,0.00,WeatherCatV1.21B27,2013-09-27 08:29:00,
2013-09-27 04:34:00,73.5,70.7,29.86,NNW,331,1.0,2.0,91,0.00,,,0.00,WeatherCatV1.21B27,2013-09-27 08:34:00,
2013-09-27 04:39:00,73.4,70.6,29.86,North,355,0.0,1.0,91,0.00,,,0.00,WeatherCatV1.21B27,2013-09-27 08:39:00,
2013-09-27 04:44:00,73.4,70.6,29.86,North,355,1.0,1.0,91,0.00,,,0.00,WeatherCatV1.21B27,2013-09-27 08:44:00,
2013-09-27 04:49:00,73.3,70.5,29.86,North,350,0.0,2.0,91,0.00,,,0.00,WeatherCatV1.21B27,2013-09-27 08:49:00,
2013-09-27 04:54:00,73.3,70.5,29.86,North,10,2.0,4.0,91,0.00,,,0.00,WeatherCatV1.21B27,2013-09-27 08:54:00,
2013-09-27 04:59:00,73.3,70.5,29.86,North,349,3.0,5.0,91,0.00,,,0.00,WeatherCatV1.21B27,2013-09-27 08:59:00,
2013-09-27 05:04:00,73.3,70.5,29.86,NW,323,0.0,1.0,91,0.00,,,0.00,WeatherCatV1.21B27,2013-09-27 09:04:00,
2013-09-27 05:09:00,73.3,70.2,29.87,NNW,345,2.0,4.0,90,0.00,,,0.00,WeatherCatV1.21B27,2013-09-27 09:09:00,
2013-09-27 05:14:00,73.3,70.2,29.87,North,355,0.0,4.0,90,0.00,,,0.00,WeatherCatV1.21B27,2013-09-27 09:14:00,
2013-09-27 05:19:00,73.3,70.5,29.87,NW,325,2.0,2.0,91,0.00,,,0.00,WeatherCatV1.21B27,2013-09-27 09:19:00,
2013-09-27 05:24:00,73.4,70.6,29.87,NW,325,0.0,2.0,91,0.00,,,0.00,WeatherCatV1.21B27,2013-09-27 09:24:00,
2013-09-27 05:30:00,73.3,70.2,29.87,NW,315,3.0,8.0,90,0.00,,,0.00,WeatherCatV1.21B27,2013-09-27 09:30:00,
2013-09-27 05:35:00,73.3,70.2,29.87,NNW,332,4.0,5.0,90,0.00,,,0.00,WeatherCatV1.21B27,2013-09-27 09:35:00,
2013-09-27 05:40:00,73.2,70.1,29.87,North,0,3.0,5.0,90,0.00,,,0.00,WeatherCatV1.21B27,2013-09-27 09:40:00,
2013-09-27 05:45:00,73.0,69.9,29.87,North,9,0.0,5.0,90,0.00,,,0.00,WeatherCatV1.21B27,2013-09-27 09:45:00,
2013-09-27 05:50:00,72.9,69.8,29.87,NNW,331,0.0,3.0,90,0.00,,,0.00,WeatherCatV1.21B27,2013-09-27 09:50:00,
2013-09-27 05:55:00,72.8,69.7,29.88,NNW,331,0.0,1.0,90,0.00,,,0.00,WeatherCatV1.21B27,2013-09-27 09:55:00,
2013-09-27 06:00:00,72.6,69.5,29.88,NNW,344,0.0,1.0,90,0.00,,,0.00,WeatherCatV1.21B27,2013-09-27 10:00:00,
2013-09-27 06:05:00,72.5,69.4,29.88,NW,321,0.0,2.0,90,0.00,,,0.00,WeatherCatV1.21B27,2013-09-27 10:05:00,
2013-09-27 06:10:00,72.4,69.3,29.88,NNW,348,1.0,1.0,90,0.00,,,0.00,WeatherCatV1.21B27,2013-09-27 10:10:00,
2013-09-27 06:15:00,72.3,69.2,29.88,North,5,0.0,4.0,90,0.00,,,0.00,WeatherCatV1.21B27,2013-09-27 10:15:00,
2013-09-27 06:20:00,72.2,69.1,29.88,North,5,0.0,1.0,90,0.00,,,0.00,WeatherCatV1.21B27,2013-09-27 10:20:00,
2013-09-27 06:25:00,72.1,69.3,29.88,North,5,0.0,2.0,91,0.00,,,0.00,WeatherCatV1.21B27,2013-09-27 10:25:00,
2013-09-27 06:30:00,72.1,69.3,29.89,North,5,0.0,1.0,91,0.00,,,0.00,WeatherCatV1.21B27,2013-09-27 10:30:00,
2013-09-27 06:35:00,72.0,69.2,29.89,NNW,336,1.0,4.0,91,0.00,,,0.00,WeatherCatV1.21B27,2013-09-27 10:35:00,
2013-09-27 06:40:00,72.0,69.2,29.89,North,355,0.0,1.0,91,0.00,,,0.00,WeatherCatV1.21B27,2013-09-27 10:40:00,
2013-09-27 06:45:00,72.0,69.2,29.89,North,355,0.0,1.0,91,0.00,,,0.00,WeatherCatV1.21B27,2013-09-27 10:45:00,
2013-09-27 06:50:00,71.9,69.1,29.89,North,0,0.0,2.0,91,0.00,,,0.00,WeatherCatV1.21B27,2013-09-27 10:50:00,
2013-09-27 06:55:00,71.8,69.0,29.89,North,0,0.0,5.0,91,0.00,,,0.00,WeatherCatV1.21B27,2013-09-27 10:55:00,
2013-09-27 07:00:00,71.7,68.9,29.89,North,355,1.0,2.0,91,0.00,,,0.00,WeatherCatV1.21B27,2013-09-27 11:00:00,
2013-09-27 07:05:00,71.7,68.9,29.89,North,355,0.0,2.0,91,0.00,,,0.00,WeatherCatV1.21B27,2013-09-27 11:05:00,
2013-09-27 07:10:00,71.6,68.8,29.89,NNW,340,1.0,1.0,91,0.00,,,0.00,WeatherCatV1.21B27,2013-09-27 11:10:00,
2013-09-27 07:15:00,71.5,69.1,29.90,NNW,340,1.0,1.0,92,0.00,,,0.00,WeatherCatV1.21B27,2013-09-27 11:15:00,
2013-09-27 07:20:00,71.5,69.1,29.90,North,355,3.0,4.0,92,0.00,,,0.00,WeatherCatV1.21B27,2013-09-27 11:20:00,
2013-09-27 07:25:00,71.5,69.1,29.90,North,0,0.0,1.0,92,0.00,,,0.00,WeatherCatV1.21B27,2013-09-27 11:25:00,
2013-09-27 07:30:00,71.4,68.9,29.90,North,0,0.0,4.0,92,0.00,,,0.00,WeatherCatV1.21B27,2013-09-27 11:30:00,
2013-09-27 07:35:00,71.4,68.9,29.90,NNW,327,1.0,4.0,92,0.00,,,0.00,WeatherCatV1.21B27,2013-09-27 11:35:00,
2013-09-27 07:40:00,71.4,68.9,29.90,NNW,329,0.0,2.0,92,0.00,,,0.00,WeatherCatV1.21B27,2013-09-27 11:40:00,
2013-09-27 07:45:00,71.4,68.9,29.90,NNW,330,1.0,2.0,92,0.00,,,0.00,WeatherCatV1.21B27,2013-09-27 11:45:00,
2013-09-27 07:50:00,71.5,69.1,29.90,NNW,335,2.0,6.0,92,0.00,,,0.00,WeatherCatV1.21B27,2013-09-27 11:50:00,
2013-09-27 07:55:00,71.5,69.1,29.91,North,351,0.0,5.0,92,0.00,,,0.00,WeatherCatV1.21B27,2013-09-27 11:55:00,
2013-09-27 08:00:00,71.6,69.2,29.91,NNW,334,0.0,4.0,92,0.00,,,0.00,WeatherCatV1.21B27,2013-09-27 12:00:00,
2013-09-27 08:05:00,71.6,69.2,29.91,NNW,333,4.0,5.0,92,0.00,,,0.00,WeatherCatV1.21B27,2013-09-27 12:05:00,
2013-09-27 08:10:00,71.7,69.2,29.91,NNW,336,4.0,5.0,92,0.00,,,0.00,WeatherCatV1.21B27,2013-09-27 12:10:00,
2013-09-27 08:15:00,71.8,69.3,29.91,NNE,15,1.0,5.0,92,0.00,,,0.00,WeatherCatV1.21B27,2013-09-27 12:15:00,
2013-09-27 08:20:00,71.9,69.4,29.92,North,0,6.0,6.0,92,0.00,,,0.00,WeatherCatV1.21B27,2013-09-27 12:20:00,
2013-09-27 08:25:00,72.0,69.5,29.92,North,351,2.0,8.0,92,0.00,,,0.00,WeatherCatV1.21B27,2013-09-27 12:25:00,
2013-09-27 08:30:00,72.1,69.6,29.92,NNE,30,6.0,9.0,92,0.00,,,0.00,WeatherCatV1.21B27,2013-09-27 12:30:00,
2013-09-27 08:35:00,72.2,69.7,29.92,NW,323,6.0,8.0,92,0.00,,,0.00,WeatherCatV1.21B27,2013-09-27 12:35:00,
2013-09-27 08:40:00,72.4,69.6,29.92,North,9,1.0,6.0,91,0.00,,,0.00,WeatherCatV1.21B27,2013-09-27 12:40:00,
2013-09-27 08:45:00,72.6,69.8,29.92,North,9,4.0,5.0,91,0.00,,,0.00,WeatherCatV1.21B27,2013-09-27 12:45:00,
2013-09-27 08:50:00,72.8,70.0,29.92,North,355,5.0,8.0,91,0.00,,,0.00,WeatherCatV1.21B27,2013-09-27 12:50:00,
2013-09-27 08:55:00,73.1,70.0,29.93,NW,319,7.0,7.0,90,0.00,,,0.00,WeatherCatV1.21B27,2013-09-27 12:55:00,
2013-09-27 09:00:00,73.3,69.8,29.93,NNE,20,1.0,4.0,89,0.00,,,0.00,WeatherCatV1.21B27,2013-09-27 13:00:00,
2013-09-27 09:05:00,73.4,69.9,29.93,NNE,22,1.0,5.0,89,0.00,,,0.00,WeatherCatV1.21B27,2013-09-27 13:05:00,
2013-09-27 09:10:00,73.5,69.7,29.93,NNE,22,2.0,9.0,88,0.00,,,0.00,WeatherCatV1.21B27,2013-09-27 13:10:00,
2013-09-27 09:15:00,73.7,69.9,29.93,North,0,2.0,8.0,88,0.00,,,0.00,WeatherCatV1.21B27,2013-09-27 13:15:00,
2013-09-27 09:20:00,73.9,70.1,29.93,NNW,338,0.0,6.0,88,0.00,,,0.00,WeatherCatV1.21B27,2013-09-27 13:20:00,
2013-09-27 09:25:00,74.1,70.3,29.93,North,355,0.0,4.0,88,0.00,,,0.00,WeatherCatV1.21B27,2013-09-27 13:25:00,
2013-09-27 09:30:00,74.5,70.7,29.93,NNW,329,2.0,6.0,88,0.00,,,0.00,WeatherCatV1.21B27,2013-09-27 13:30:00,
2013-09-27 09:35:00,74.7,70.6,29.93,North,351,4.0,6.0,87,0.00,,,0.00,WeatherCatV1.21B27,2013-09-27 13:35:00,
2013-09-27 09:40:00,74.9,70.8,29.93,North,9,4.0,7.0,87,0.00,,,0.00,WeatherCatV1.21B27,2013-09-27 13:40:00,
2013-09-27 09:45:00,75.2,70.4,29.93,North,0,3.0,10.0,85,0.00,,,0.00,WeatherCatV1.21B27,2013-09-27 13:45:00,
2013-09-27 09:50:00,75.5,70.7,29.93,North,355,3.0,7.0,85,0.00,,,0.00,WeatherCatV1.21B27,2013-09-27 13:50:00,
2013-09-27 09:55:00,75.9,71.1,29.93,NNW,331,3.0,6.0,85,0.00,,,0.00,WeatherCatV1.21B27,2013-09-27 13:55:00,
2013-09-27 10:00:00,76.2,70.6,29.94,North,355,2.0,4.0,83,0.00,,,0.00,WeatherCatV1.21B27,2013-09-27 14:00:00,
2013-09-27 10:05:00,76.4,70.8,29.94,NNW,335,5.0,6.0,83,0.00,,,0.00,WeatherCatV1.21B27,2013-09-27 14:05:00,
2013-09-27 10:10:00,76.6,71.0,29.93,NW,326,1.0,3.0,83,0.00,,,0.00,WeatherCatV1.21B27,2013-09-27 14:10:00,
2013-09-27 10:15:00,76.7,71.1,29.94,North,355,2.0,7.0,83,0.00,,,0.00,WeatherCatV1.21B27,2013-09-27 14:15:00,
2013-09-27 10:20:00,76.9,71.0,29.94,NNE,20,0.0,4.0,82,0.00,,,0.00,WeatherCatV1.21B27,2013-09-27 14:20:00,
2013-09-27 10:25:00,77.3,71.7,29.94,East,92,1.0,5.0,83,0.00,,,0.00,WeatherCatV1.21B27,2013-09-27 14:25:00,
2013-09-27 10:30:00,77.6,71.3,29.94,North,0,0.0,6.0,81,0.00,,,0.00,WeatherCatV1.21B27,2013-09-27 14:30:00,
2013-09-27 10:35:00,78.0,71.3,29.93,NNE,13,0.0,4.0,80,0.00,,,0.00,WeatherCatV1.21B27,2013-09-27 14:35:00,
2013-09-27 10:40:00,78.3,72.0,29.94,North,5,1.0,4.0,81,0.00,,,0.00,WeatherCatV1.21B27,2013-09-27 14:40:00,
2013-09-27 10:45:00,78.8,72.1,29.94,NW,325,1.0,8.0,80,0.00,,,0.00,WeatherCatV1.21B27,2013-09-27 14:45:00,
2013-09-27 10:50:00,79.2,72.1,29.93,NE,37,0.0,2.0,79,0.00,,,0.00,WeatherCatV1.21B27,2013-09-27 14:50:00,
2013-09-27 10:55:00,79.7,71.8,29.93,North,0,2.0,8.0,77,0.00,,,0.00,WeatherCatV1.21B27,2013-09-27 14:55:00,
2013-09-27 11:00:00,80.1,71.8,29.93,NW,307,4.0,7.0,76,0.00,,,0.00,WeatherCatV1.21B27,2013-09-27 15:00:00,
2013-09-27 11:05:00,80.5,72.2,29.93,NNW,327,6.0,6.0,76,0.00,,,0.00,WeatherCatV1.21B27,2013-09-27 15:05:00,
2013-09-27 11:10:00,80.7,72.0,29.93,WNW,300,2.0,9.0,75,0.00,,,0.00,WeatherCatV1.21B27,2013-09-27 15:10:00,
2013-09-27 11:15:00,81.0,72.7,29.93,NW,317,1.0,6.0,76,0.00,,,0.00,WeatherCatV1.21B27,2013-09-27 15:15:00,
2013-09-27 11:20:00,81.5,72.4,29.93,North,355,2.0,6.0,74,0.00,,,0.00,WeatherCatV1.21B27,2013-09-27 15:20:00,
2013-09-27 11:25:00,81.6,72.9,29.93,NNW,347,5.0,6.0,75,0.00,,,0.00,WeatherCatV1.21B27,2013-09-27 15:25:00,
2013-09-27 11:30:00,81.9,72.0,29.93,ENE,71,0.0,5.0,72,0.00,,,0.00,WeatherCatV1.21B27,2013-09-27 15:30:00,
2013-09-27 11:35:00,82.2,71.8,29.93,NW,325,7.0,9.0,71,0.00,,,0.00,WeatherCatV1.21B27,2013-09-27 15:35:00,
2013-09-27 11:40:00,82.3,72.3,29.92,WNW,287,6.0,6.0,72,0.00,,,0.00,WeatherCatV1.21B27,2013-09-27 15:40:00,
2013-09-27 11:45:00,82.2,72.2,29.92,NNW,339,1.0,4.0,72,0.00,,,0.00,WeatherCatV1.21B27,2013-09-27 15:45:00,
2013-09-27 11:50:00,82.5,72.9,29.92,North,355,4.0,7.0,73,0.00,,,0.00,WeatherCatV1.21B27,2013-09-27 15:50:00,
2013-09-27 11:55:00,82.9,72.5,29.92,NNW,327,1.0,2.0,71,0.00,,,0.00,WeatherCatV1.21B27,2013-09-27 15:55:00,
2013-09-27 12:00:00,83.2,71.9,29.92,NNW,329,1.0,8.0,69,0.00,,,0.00,WeatherCatV1.21B27,2013-09-27 16:00:00,
2013-09-27 12:05:00,83.4,72.1,29.92,NNE,26,4.0,5.0,69,0.00,,,0.00,WeatherCatV1.21B27,2013-09-27 16:05:00,
2013-09-27 12:10:00,83.5,71.4,29.92,NW,304,5.0,6.0,67,0.00,,,0.00,WeatherCatV1.21B27,2013-09-27 16:10:00,
2013-09-27 12:15:00,83.8,71.6,29.92,NNW,336,2.0,6.0,67,0.00,,,0.00,WeatherCatV1.21B27,2013-09-27 16:15:00,
2013-09-27 12:20:00,83.8,71.6,29.92,NE,35,1.0,2.0,67,0.00,,,0.00,WeatherCatV1.21B27,2013-09-27 16:20:00,
2013-09-27 12:25:00,84.0,72.3,29.92,NNW,331,4.0,10.0,68,0.00,,,0.00,WeatherCatV1.21B27,2013-09-27 16:25:00,
2013-09-27 12:30:00,84.2,71.1,29.92,North,355,0.0,4.0,65,0.00,,,0.00,WeatherCatV1.21B27,2013-09-27 16:30:00,
2013-09-27 12:35:00,84.3,71.2,29.92,NW,313,4.0,7.0,65,0.00,,,0.00,WeatherCatV1.21B27,2013-09-27 16:35:00,
2013-09-27 12:40:00,84.3,71.2,29.91,North,5,5.0,7.0,65,0.00,,,0.00,WeatherCatV1.21B27,2013-09-27 16:40:00,
2013-09-27 12:45:00,84.2,72.0,29.91,North,355,2.0,9.0,67,0.00,,,0.00,WeatherCatV1.21B27,2013-09-27 16:45:00,
2013-09-27 12:50:00,84.5,73.2,29.91,North,5,3.0,8.0,69,0.00,,,0.00,WeatherCatV1.21B27,2013-09-27 16:50:00,
2013-09-27 12:55:00,84.3,72.6,29.91,NW,324,1.0,2.0,68,0.00,,,0.00,WeatherCatV1.21B27,2013-09-27 16:55:00,
2013-09-27 13:00:00,84.1,72.4,29.91,NW,321,5.0,8.0,68,0.00,,,0.00,WeatherCatV1.21B27,2013-09-27 17:00:00,
2013-09-27 13:05:00,83.8,71.2,29.91,NW,321,4.0,10.0,66,0.00,,,0.00,WeatherCatV1.21B27,2013-09-27 17:05:00,
2013-09-27 13:10:00,83.8,71.2,29.91,NE,42,6.0,7.0,66,0.00,,,0.00,WeatherCatV1.21B27,2013-09-27 17:10:00,
2013-09-27 13:15:00,84.2,71.6,29.91,North,11,1.0,2.0,66,0.00,,,0.00,WeatherCatV1.21B27,2013-09-27 17:15:00,
2013-09-27 13:20:00,84.7,72.5,29.90,NW,315,0.0,8.0,67,0.00,,,0.00,WeatherCatV1.21B27,2013-09-27 17:20:00,
2013-09-27 13:25:00,84.8,72.2,29.90,NW,311,7.0,7.0,66,0.00,,,0.00,WeatherCatV1.21B27,2013-09-27 17:25:00,
2013-09-27 13:26:00,84.8,72.2,29.90,North,355,2.0,8.0,66,0.00,,,0.00,WeatherCatV1.21B27,2013-09-27 17:26:00,
2013-09-27 13:31:00,84.8,71.7,29.90,North,0,1.0,5.0,65,0.00,,,0.00,WeatherCatV1.21B27,2013-09-27 17:31:00,
2013-09-27 13:36:00,84.3,71.2,29.90,NNE,18,4.0,7.0,65,0.00,,,0.00,WeatherCatV1.21B27,2013-09-27 17:36:00,
2013-09-27 13:41:00,83.9,72.2,29.90,West,277,5.0,8.0,68,0.00,,,0.00,WeatherCatV1.21B27,2013-09-27 17:41:00,
2013-09-27 13:47:00,84.2,72.0,29.90,NW,317,4.0,8.0,67,0.00,,,0.00,WeatherCatV1.21B27,2013-09-27 17:47:00,
2013-09-27 13:52:00,84.1,71.0,29.89,NNW,346,3.0,8.0,65,0.00,,,0.00,WeatherCatV1.21B27,2013-09-27 17:52:00,
2013-09-27 13:57:00,84.1,71.5,29.89,NW,315,2.0,12.0,66,0.00,,,0.00,WeatherCatV1.21B27,2013-09-27 17:57:00,
2013-09-27 14:02:00,84.6,72.0,29.89,NW,323,5.0,5.0,66,0.00,,,0.00,WeatherCatV1.21B27,2013-09-27 18:02:00,
2013-09-27 14:07:00,85.0,71.9,29.89,NE,40,1.0,7.0,65,0.00,,,0.00,WeatherCatV1.21B27,2013-09-27 18:07:00,
2013-09-27 14:12:00,85.2,72.1,29.89,NNE,19,4.0,8.0,65,0.00,,,0.00,WeatherCatV1.21B27,2013-09-27 18:12:00,
2013-09-27 14:17:00,85.4,72.3,29.88,North,355,6.0,9.0,65,0.00,,,0.00,WeatherCatV1.21B27,2013-09-27 18:17:00,
2013-09-27 14:22:00,85.8,73.1,29.88,North,355,1.0,2.0,66,0.00,,,0.00,WeatherCatV1.21B27,2013-09-27 18:22:00,
2013-09-27 14:27:00,85.7,72.6,29.88,ESE,105,3.0,8.0,65,0.00,,,0.00,WeatherCatV1.21B27,2013-09-27 18:27:00,
2013-09-27 14:32:00,85.8,72.6,29.88,NE,35,2.0,8.0,65,0.00,,,0.00,WeatherCatV1.21B27,2013-09-27 18:32:00,
2013-09-27 14:37:00,85.6,71.5,29.88,NE,34,1.0,6.0,63,0.00,,,0.00,WeatherCatV1.21B27,2013-09-27 18:37:00,
2013-09-27 14:42:00,85.5,71.0,29.87,North,5,5.0,6.0,62,0.00,,,0.00,WeatherCatV1.21B27,2013-09-27 18:42:00,
2013-09-27 14:47:00,85.6,71.5,29.87,North,5,3.0,8.0,63,0.00,,,0.00,WeatherCatV1.21B27,2013-09-27 18:47:00,
2013-09-27 14:52:00,85.7,72.6,29.87,NW,318,6.0,7.0,65,0.00,,,0.00,WeatherCatV1.21B27,2013-09-27 18:52:00,
2013-09-27 14:57:00,85.7,71.2,29.87,East,93,3.0,8.0,62,0.00,,,0.00,WeatherCatV1.21B27,2013-09-27 18:57:00,
2013-09-27 15:02:00,85.6,72.0,29.87,NNW,341,1.0,6.0,64,0.00,,,0.00,WeatherCatV1.21B27,2013-09-27 19:02:00,
2013-09-27 15:07:00,85.5,71.9,29.87,NW,315,6.0,9.0,64,0.00,,,0.00,WeatherCatV1.21B27,2013-09-27 19:07:00,
2013-09-27 15:12:00,85.3,72.2,29.87,NNE,17,4.0,5.0,65,0.00,,,0.00,WeatherCatV1.21B27,2013-09-27 19:12:00,
2013-09-27 15:17:00,85.5,70.5,29.86,ENE,67,0.0,2.0,61,0.00,,,0.00,WeatherCatV1.21B27,2013-09-27 19:17:00,
2013-09-27 15:22:00,85.6,71.5,29.86,North,355,2.0,4.0,63,0.00,,,0.00,WeatherCatV1.21B27,2013-09-27 19:22:00,
2013-09-27 15:27:00,85.8,72.6,29.86,NNW,339,4.0,9.0,65,0.00,,,0.00,WeatherCatV1.21B27,2013-09-27 19:27:00,
2013-09-27 15:32:00,86.0,72.4,29.86,NNW,341,2.0,8.0,64,0.00,,,0.00,WeatherCatV1.21B27,2013-09-27 19:32:00,
2013-09-27 15:37:00,86.1,72.0,29.86,NNW,338,6.0,10.0,63,0.00,,,0.00,WeatherCatV1.21B27,2013-09-27 19:37:00,
2013-09-27 15:42:00,86.1,72.0,29.86,NNW,344,0.0,3.0,63,0.00,,,0.00,WeatherCatV1.21B27,2013-09-27 19:42:00,
2013-09-27 15:47:00,86.3,71.7,29.86,East,83,5.0,6.0,62,0.00,,,0.00,WeatherCatV1.21B27,2013-09-27 19:47:00,
2013-09-27 15:52:00,86.1,71.5,29.86,NW,322,7.0,8.0,62,0.00,,,0.00,WeatherCatV1.21B27,2013-09-27 19:52:00,
2013-09-27 15:57:00,86.1,72.0,29.85,NW,315,0.0,6.0,63,0.00,,,0.00,WeatherCatV1.21B27,2013-09-27 19:57:00,
2013-09-27 16:02:00,86.2,72.1,29.85,North,355,4.0,9.0,63,0.00,,,0.00,WeatherCatV1.21B27,2013-09-27 20:02:00,
2013-09-27 16:07:00,86.5,72.4,29.85,North,355,2.0,8.0,63,0.00,,,0.00,WeatherCatV1.21B27,2013-09-27 20:07:00,
2013-09-27 16:12:00,86.6,72.5,29.85,NNW,345,2.0,5.0,63,0.00,,,0.00,WeatherCatV1.21B27,2013-09-27 20:12:00,
2013-09-27 16:17:00,86.7,73.0,29.85,NNE,13,2.0,2.0,64,0.00,,,0.00,WeatherCatV1.21B27,2013-09-27 20:17:00,
2013-09-27 16:22:00,86.6,72.9,29.85,NW,318,7.0,13.0,64,0.00,,,0.00,WeatherCatV1.21B27,2013-09-27 20:22:00,
2013-09-27 16:27:00,86.0,72.8,29.85,NNW,346,1.0,5.0,65,0.00,,,0.00,WeatherCatV1.21B27,2013-09-27 20:27:00,
2013-09-27 16:32:00,85.7,72.6,29.85,ENE,57,2.0,6.0,65,0.00,,,0.00,WeatherCatV1.21B27,2013-09-27 20:32:00,
2013-09-27 16:37:00,85.7,73.0,29.85,NNE,32,1.0,6.0,66,0.00,,,0.00,WeatherCatV1.21B27,2013-09-27 20:37:00,
2013-09-27 16:42:00,85.6,72.9,29.86,NNW,348,4.0,7.0,66,0.00,,,0.00,WeatherCatV1.21B27,2013-09-27 20:42:00,
2013-09-27 16:47:00,85.2,72.5,29.86,North,355,11.0,11.0,66,0.00,,,0.00,WeatherCatV1.21B27,2013-09-27 20:47:00,
2013-09-27 16:52:00,84.9,72.2,29.85,NW,323,7.0,13.0,66,0.00,,,0.00,WeatherCatV1.21B27,2013-09-27 20:52:00,
2013-09-27 16:57:00,85.0,72.3,29.85,North,5,4.0,13.0,66,0.00,,,0.00,WeatherCatV1.21B27,2013-09-27 20:57:00,
2013-09-27 17:02:00,84.6,72.0,29.85,NNW,346,5.0,11.0,66,0.00,,,0.00,WeatherCatV1.21B27,2013-09-27 21:02:00,
2013-09-27 17:07:00,84.3,72.1,29.85,North,355,4.0,8.0,67,0.00,,,0.00,WeatherCatV1.21B27,2013-09-27 21:07:00,
2013-09-27 17:12:00,84.3,72.6,29.86,North,11,4.0,5.0,68,0.00,,,0.00,WeatherCatV1.21B27,2013-09-27 21:12:00,
2013-09-27 17:17:00,84.6,72.4,29.86,North,349,1.0,9.0,67,0.00,,,0.00,WeatherCatV1.21B27,2013-09-27 21:17:00,
2013-09-27 17:22:00,85.0,72.8,29.86,NNW,338,7.0,11.0,67,0.00,,,0.00,WeatherCatV1.21B27,2013-09-27 21:22:00,
2013-09-27 17:27:00,85.1,71.5,29.86,NE,40,5.0,7.0,64,0.00,,,0.00,WeatherCatV1.21B27,2013-09-27 21:27:00,
2013-09-27 17:32:00,84.8,71.2,29.86,NNE,22,0.0,4.0,64,0.00,,,0.00,WeatherCatV1.21B27,2013-09-27 21:32:00,
2013-09-27 17:37:00,84.7,71.1,29.86,NNW,344,5.0,7.0,64,0.00,,,0.00,WeatherCatV1.21B27,2013-09-27 21:37:00,
2013-09-27 17:42:00,84.6,71.5,29.86,North,11,2.0,7.0,65,0.00,,,0.00,WeatherCatV1.21B27,2013-09-27 21:42:00,
2013-09-27 17:47:00,84.8,71.7,29.86,North,0,3.0,8.0,65,0.00,,,0.00,WeatherCatV1.21B27,2013-09-27 21:47:00,
2013-09-27 17:52:00,84.9,72.2,29.86,NNE,18,4.0,7.0,66,0.00,,,0.00,WeatherCatV1.21B27,2013-09-27 21:52:00,
2013-09-27 17:57:00,84.8,72.6,29.86,NW,318,6.0,6.0,67,0.00,,,0.00,WeatherCatV1.21B27,2013-09-27 21:57:00,
2013-09-27 18:02:00,84.7,72.1,29.87,NE,39,2.0,10.0,66,0.00,,,0.00,WeatherCatV1.21B27,2013-09-27 22:02:00,
2013-09-27 18:07:00,84.3,72.1,29.87,NNE,21,8.0,12.0,67,0.00,,,0.00,WeatherCatV1.21B27,2013-09-27 22:07:00,
2013-09-27 18:12:00,84.0,71.8,29.87,NE,36,0.0,8.0,67,0.00,,,0.00,WeatherCatV1.21B27,2013-09-27 22:12:00,
2013-09-27 18:17:00,83.9,72.2,29.87,East,87,5.0,7.0,68,0.00,,,0.00,WeatherCatV1.21B27,2013-09-27 22:17:00,
2013-09-27 18:22:00,83.6,71.9,29.87,ENE,57,5.0,8.0,68,0.00,,,0.00,WeatherCatV1.21B27,2013-09-27 22:22:00,
2013-09-27 18:27:00,83.5,72.2,29.87,ENE,78,0.0,5.0,69,0.00,,,0.00,WeatherCatV1.21B27,2013-09-27 22:27:00,
2013-09-27 18:32:00,83.3,72.0,29.88,NNW,338,0.0,5.0,69,0.00,,,0.00,WeatherCatV1.21B27,2013-09-27 22:32:00,
2013-09-27 18:37:00,83.2,71.5,29.88,North,350,1.0,8.0,68,0.00,,,0.00,WeatherCatV1.21B27,2013-09-27 22:37:00,
2013-09-27 18:42:00,83.0,71.3,29.88,NNW,338,2.0,7.0,68,0.00,,,0.00,WeatherCatV1.21B27,2013-09-27 22:42:00,
2013-09-27 18:47:00,82.8,71.1,29.88,NNW,348,8.0,8.0,68,0.00,,,0.00,WeatherCatV1.21B27,2013-09-27 22:47:00,
2013-09-27 18:52:00,82.6,71.4,29.88,NNE,27,4.0,5.0,69,0.00,,,0.00,WeatherCatV1.21B27,2013-09-27 22:52:00,
2013-09-27 18:57:00,82.4,71.2,29.88,NE,52,1.0,5.0,69,0.00,,,0.00,WeatherCatV1.21B27,2013-09-27 22:57:00,
2013-09-27 19:02:00,82.2,71.4,29.88,North,0,1.0,2.0,70,0.00,,,0.00,WeatherCatV1.21B27,2013-09-27 23:02:00,
2013-09-27 19:07:00,82.0,71.2,29.88,ESE,113,2.0,4.0,70,0.00,,,0.00,WeatherCatV1.21B27,2013-09-27 23:07:00,
2013-09-27 19:12:00,81.8,71.0,29.88,North,5,1.0,5.0,70,0.00,,,0.00,WeatherCatV1.21B27,2013-09-27 23:12:00,
2013-09-27 19:17:00,81.5,70.8,29.88,NE,34,1.0,5.0,70,0.00,,,0.00,WeatherCatV1.21B27,2013-09-27 23:17:00,
2013-09-27 19:22:00,81.2,70.9,29.88,NNE,17,0.0,4.0,71,0.00,,,0.00,WeatherCatV1.21B27,2013-09-27 23:22:00,
2013-09-27 19:27:00,81.0,71.1,29.88,East,96,0.0,6.0,72,0.00,,,0.00,WeatherCatV1.21B27,2013-09-27 23:27:00,
2013-09-27 19:32:00,80.7,71.6,29.89,East,80,0.0,0.0,74,0.00,,,0.00,WeatherCatV1.21B27,2013-09-27 23:32:00,
2013-09-27 19:37:00,80.4,70.9,29.89,NW,319,1.0,1.0,73,0.00,,,0.00,WeatherCatV1.21B27,2013-09-27 23:37:00,
2013-09-27 19:42:00,80.3,70.4,29.89,ENE,61,0.0,0.0,72,0.00,,,0.00,WeatherCatV1.21B27,2013-09-27 23:42:00,
2013-09-27 19:47:00,80.2,70.7,29.89,NNE,30,0.0,2.0,73,0.00,,,0.00,WeatherCatV1.21B27,2013-09-27 23:47:00,
2013-09-27 19:52:00,80.1,70.6,29.89,North,0,7.0,7.0,73,0.00,,,0.00,WeatherCatV1.21B27,2013-09-27 23:52:00,
2013-09-27 19:57:00,80.0,70.6,29.89,NE,44,1.0,5.0,73,0.00,,,0.00,WeatherCatV1.21B27,2013-09-27 23:57:00,
2013-09-27 20:02:00,79.9,70.4,29.90,NE,44,1.0,2.0,73,0.00,,,0.00,WeatherCatV1.21B27,2013-09-28 00:02:00,
2013-09-27 20:07:00,79.7,70.7,29.90,NNW,338,5.0,5.0,74,0.00,,,0.00,WeatherCatV1.21B27,2013-09-28 00:07:00,
2013-09-27 20:12:00,79.6,70.6,29.90,ESE,114,3.0,6.0,74,0.00,,,0.00,WeatherCatV1.21B27,2013-09-28 00:12:00,
2013-09-27 20:17:00,79.5,70.5,29.90,ESE,113,0.0,5.0,74,0.00,,,0.00,WeatherCatV1.21B27,2013-09-28 00:17:00,
2013-09-27 20:22:00,79.4,70.4,29.90,NE,43,1.0,2.0,74,0.00,,,0.00,WeatherCatV1.21B27,2013-09-28 00:22:00,
2013-09-27 20:28:00,79.4,70.4,29.90,ENE,57,1.0,2.0,74,0.00,,,0.00,WeatherCatV1.21B27,2013-09-28 00:28:00,
2013-09-27 20:33:00,79.3,70.3,29.90,East,88,1.0,1.0,74,0.00,,,0.00,WeatherCatV1.21B27,2013-09-28 00:33:00,
2013-09-27 20:38:00,79.1,70.1,29.91,East,98,2.0,4.0,74,0.00,,,0.00,WeatherCatV1.21B27,2013-09-28 00:38:00,
2013-09-27 20:43:00,79.0,70.0,29.91,East,91,0.0,6.0,74,0.00,,,0.00,WeatherCatV1.21B27,2013-09-28 00:43:00,
2013-09-27 20:48:00,78.8,70.2,29.91,North,5,0.0,4.0,75,0.00,,,0.00,WeatherCatV1.21B27,2013-09-28 00:48:00,
2013-09-27 20:53:00,78.7,70.1,29.92,ENE,76,0.0,2.0,75,0.00,,,0.00,WeatherCatV1.21B27,2013-09-28 00:53:00,
2013-09-27 20:58:00,78.7,70.1,29.92,NNE,27,0.0,1.0,75,0.00,,,0.00,WeatherCatV1.21B27,2013-09-28 00:58:00,
2013-09-27 21:03:00,78.6,70.0,29.92,East,91,0.0,2.0,75,0.00,,,0.00,WeatherCatV1.21B27,2013-09-28 01:03:00,
2013-09-27 21:08:00,78.5,69.9,29.92,East,84,0.0,5.0,75,0.00,,,0.00,WeatherCatV1.21B27,2013-09-28 01:08:00,
2013-09-27 21:13:00,78.4,70.2,29.92,ENE,58,0.0,1.0,76,0.00,,,0.00,WeatherCatV1.21B27,2013-09-28 01:13:00,
2013-09-27 21:18:00,78.2,70.0,29.92,North,9,0.0,3.0,76,0.00,,,0.00,WeatherCatV1.21B27,2013-09-28 01:18:00,
2013-09-27 21:23:00,78.1,69.9,29.92,North,11,0.0,2.0,76,0.00,,,0.00,WeatherCatV1.21B27,2013-09-28 01:23:00,
2013-09-27 21:28:00,78.0,69.8,29.92,NNE,17,0.0,2.0,76,0.00,,,0.00,WeatherCatV1.21B27,2013-09-28 01:28:00,
2013-09-27 21:33:00,77.9,70.1,29.93,ENE,69,1.0,4.0,77,0.00,,,0.00,WeatherCatV1.21B27,2013-09-28 01:33:00,
2013-09-27 21:38:00,77.8,70.0,29.93,East,80,0.0,4.0,77,0.00,,,0.00,WeatherCatV1.21B27,2013-09-28 01:38:00,
2013-09-27 21:43:00,77.7,69.9,29.93,ENE,77,1.0,5.0,77,0.00,,,0.00,WeatherCatV1.21B27,2013-09-28 01:43:00,
2013-09-27 21:48:00,77.6,69.8,29.93,NE,37,0.0,3.0,77,0.00,,,0.00,WeatherCatV1.21B27,2013-09-28 01:48:00,
2013-09-27 21:53:00,77.6,69.8,29.93,NE,35,1.0,3.0,77,0.00,,,0.00,WeatherCatV1.21B27,2013-09-28 01:53:00,
2013-09-27 21:58:00,77.6,70.2,29.93,North,350,0.0,4.0,78,0.00,,,0.00,WeatherCatV1.21B27,2013-09-28 01:58:00,
2013-09-27 22:03:00,77.7,69.9,29.93,NNE,23,0.0,2.0,77,0.00,,,0.00,WeatherCatV1.21B27,2013-09-28 02:03:00,
2013-09-27 22:08:00,77.8,70.0,29.93,NNE,16,1.0,5.0,77,0.00,,,0.00,WeatherCatV1.21B27,2013-09-28 02:08:00,
2013-09-27 22:13:00,77.8,70.4,29.94,NNW,344,1.0,2.0,78,0.00,,,0.00,WeatherCatV1.21B27,2013-09-28 02:13:00,
2013-09-27 22:18:00,77.8,70.4,29.94,North,349,3.0,4.0,78,0.00,,,0.00,WeatherCatV1.21B27,2013-09-28 02:18:00,
2013-09-27 22:23:00,77.8,70.4,29.94,NNE,30,0.0,4.0,78,0.00,,,0.00,WeatherCatV1.21B27,2013-09-28 02:23:00,
2013-09-27 22:28:00,77.9,70.5,29.94,NNE,15,1.0,4.0,78,0.00,,,0.00,WeatherCatV1.21B27,2013-09-28 02:28:00,
2013-09-27 22:33:00,77.8,70.4,29.94,North,355,0.0,1.0,78,0.00,,,0.00,WeatherCatV1.21B27,2013-09-28 02:33:00,
2013-09-27 22:38:00,77.8,70.4,29.94,NNE,30,0.0,2.0,78,0.00,,,0.00,WeatherCatV1.21B27,2013-09-28 02:38:00,
2013-09-27 22:43:00,77.8,70.4,29.94,NNE,27,0.0,4.0,78,0.00,,,0.00,WeatherCatV1.21B27,2013-09-28 02:43:00,
2013-09-27 22:48:00,77.8,70.4,29.94,NNE,26,1.0,3.0,78,0.00,,,0.00,WeatherCatV1.21B27,2013-09-28 02:48:00,
2013-09-27 22:53:00,77.7,70.3,29.94,North,0,2.0,7.0,78,0.00,,,0.00,WeatherCatV1.21B27,2013-09-28 02:53:00,
2013-09-27 22:58:00,77.8,70.4,29.94,North,350,0.0,1.0,78,0.00,,,0.00,WeatherCatV1.21B27,2013-09-28 02:58:00,
2013-09-27 23:03:00,77.8,70.4,29.94,NNE,15,4.0,5.0,78,0.00,,,0.00,WeatherCatV1.21B27,2013-09-28 03:03:00,
2013-09-27 23:08:00,77.7,70.3,29.94,North,0,2.0,4.0,78,0.00,,,0.00,WeatherCatV1.21B27,2013-09-28 03:08:00,
2013-09-27 23:13:00,77.6,70.6,29.94,North,5,0.0,6.0,79,0.00,,,0.00,WeatherCatV1.21B27,2013-09-28 03:13:00,
2013-09-27 23:18:00,77.5,70.5,29.94,North,5,0.0,2.0,79,0.00,,,0.00,WeatherCatV1.21B27,2013-09-28 03:18:00,
2013-09-27 23:23:00,77.5,70.5,29.94,NNE,21,1.0,5.0,79,0.00,,,0.00,WeatherCatV1.21B27,2013-09-28 03:23:00,
2013-09-27 23:28:00,77.3,70.3,29.94,North,9,0.0,2.0,79,0.00,,,0.00,WeatherCatV1.21B27,2013-09-28 03:28:00,
2013-09-27 23:33:00,77.2,70.5,29.95,NNW,345,0.0,2.0,80,0.00,,,0.00,WeatherCatV1.21B27,2013-09-28 03:33:00,
2013-09-27 23:38:00,77.0,70.3,29.94,North,355,1.0,4.0,80,0.00,,,0.00,WeatherCatV1.21B27,2013-09-28 03:38:00,
2013-09-27 23:43:00,76.9,70.2,29.94,NE,38,0.0,5.0,80,0.00,,,0.00,WeatherCatV1.21B27,2013-09-28 03:43:00,
2013-09-27 23:48:00,76.7,70.1,29.94,NNE,30,1.0,5.0,80,0.00,,,0.00,WeatherCatV1.21B27,2013-09-28 03:48:00,
2013-09-27 23:53:00,76.6,69.9,29.95,ENE,71,2.0,4.0,80,0.00,,,0.00,WeatherCatV1.21B27,2013-09-28 03:53:00,
2013-09-27 23:58:00,76.5,70.2,29.95,NNE,26,0.0,2.0,81,0.00,,,0.00,WeatherCatV1.21B27,2013-09-28 03:58:00,